Home   Weather   Damascus   Past weeks
Flag for Syria

Past Weather in Damascus, Syria — Yesterday and Last 2 Weeks

Now
52 °F

Clear.


Feels Like: 49 °F
Forecast: 68 / 44 °F
Wind: 8 mph from Northeast

Location: Damascus Int. Airport

Current Time: Mar 22, 2019 at 5:09:50 am

Latest Report: Mar 22, 2019 at 4:00 am


Visibility: 10 mi

Pressure: 30.04 "Hg (27.65 "Hg at 689m altitude)

Humidity: 44%

Dew Point: 30 °F

Location of DamascusLocation

Past Weather in Damascus — Graph

°F

Damascus Temperature Yesterday

Maximum temperature yesterday: 72 °F (at 2:00 pm)
Minimum temperature yesterday: 46 °F (at 5:00 am)
Average temperature yesterday: 60 °F

High & Low Weather Summary for the Past Weeks

 TemperatureHumidityPressure
High73 °F (Mar 13, 2:00 pm)100% (Mar 9, 7:00 am)30.36 "Hg (Mar 9, 7:00 am)
Low27 °F (Mar 8, 6:00 am)16% (Mar 8, 1:00 pm)29.71 "Hg (Mar 13, 3:00 pm)
Average53 °F57%30.04 "Hg
* Reported Mar 7 4:00 am — Mar 22 4:00 am, Damascus. Weather by CustomWeather, © 2019

Note: Actual official high and low records may vary slightly from our data, if they occured in-between our weather recording intervals... More about our weather records

Advertising

Damascus Weather History for the Previous 24 Hours

Scroll right to see more
 ConditionsComfort  
Time TempWeatherWind HumidityBarometerVisibility
4:00 am
Fri, Mar 22
52 °FClear.8 mph44%30.04 "Hg10 mi
3:00 am52 °FClear.8 mph44%30.04 "Hg10 mi
2:00 am48 °FClear.5 mph58%30.07 "Hg10 mi
1:00 am52 °FClear.7 mph58%30.07 "Hg10 mi
12:00 am54 °FClear.7 mph54%30.07 "Hg10 mi
11:00 pm
Thu, Mar 21
52 °FPassing clouds.6 mph58%30.07 "HgN/A
10:00 pm57 °FPassing clouds.3 mph48%30.04 "HgN/A
9:00 pm59 °FPassing clouds.8 mph42%30.04 "HgN/A
7:42 pm63 °FPassing clouds.7 mph32%N/AN/A
7:27 pm63 °FPassing clouds.7 mph32%N/AN/A
7:12 pm63 °FPassing clouds.7 mph32%N/AN/A
6:00 pm68 °FPassing clouds.12 mph24%29.95 "HgN/A
5:00 pm72 °FPassing clouds.8 mph23%29.95 "HgN/A
4:00 pm72 °FScattered clouds.5 mph23%29.95 "HgN/A
3:00 pm72 °FScattered clouds.8 mph23%29.98 "HgN/A
2:00 pm72 °FScattered clouds.8 mph23%29.98 "HgN/A
1:00 pm70 °FSunny.6 mph25%30.01 "Hg10 mi
12:00 pm68 °FSunny.10 mph28%30.04 "Hg10 mi
11:00 am68 °FSunny.8 mph26%30.07 "Hg10 mi
10:00 am64 °FSunny.12 mph28%30.07 "Hg10 mi
9:00 am61 °FSunny.10 mph29%30.07 "Hg10 mi
8:00 am57 °FSunny.9 mph33%30.07 "Hg10 mi
7:00 am52 °FSunny.8 mph35%30.07 "Hg10 mi
6:00 am46 °FSunny.9 mph43%30.04 "Hg10 mi
5:00 am46 °FClear.10 mph43%30.04 "Hg10 mi
Weather by CustomWeather, © 2019

See weather overview